GFSNGP_925_rhum_090.txt.gz
RH
78 80 75 73 72 80 84 69 77 60 62 45 54 50 46 43 49 51 54 55 57 62 66 58 54 53 54 65 68 69 72 74 71 70 70 68 67 65 64 65 65 65 67 70
76 72 69 68 69 74 79 75 73 68 69 55 45 51 51 51 48 49 53 52 58 62 66 65 63 60 59 59 68 71 71 71 72 71 70 68 66 66 67 68 69 70 70 72
87 78 68 68 62 70 71 72 70 81 67 56 56 54 52 52 54 54 54 57 62 67 70 68 65 65 62 60 60 75 73 72 72 71 70 69 69 71 72 72 72 73 76 78
95 76 80 54 50 54 64 60 65 66 62 55 54 57 59 54 55 59 62 62 67 70 69 66 67 66 68 70 67 72 77 74 73 72 72 72 73 74 75 75 76 77 78 81
96 97 66 56 54 51 58 52 64 67 61 59 63 58 60 59 66 66 67 66 66 67 69 69 68 70 73 72 77 75 78 76 74 73 73 75 78 78 78 78 79 80 82 85
72 99 78 52 51 46 42 61 69 69 71 68 64 78 77 72 73 75 75 68 66 64 68 69 68 70 76 78 81 82 78 79 77 75 75 76 76 79 81 83 83 86 87 89
75 75 80 58 51 43 57 55 64 64 70 67 68 71 72 76 76 75 76 73 70 68 68 67 68 72 74 79 81 80 82 82 80 76 75 75 78 81 82 86 89 90 94 95
91 93 88 53 48 49 52 68 67 68 70 69 71 71 73 80 83 83 83 76 73 76 70 66 68 72 75 76 78 82 84 86 83 77 77 78 81 84 89 92 95 99 99 97
81 77 60 67 59 67 72 73 70 70 73 75 72 72 83 84 86 86 84 84 83 81 76 69 69 73 76 74 78 83 85 85 85 83 82 82 83 88 93 95 98 99 99 99
68 64 65 67 63 62 59 63 75 78 76 76 82 85 87 88 89 90 86 87 86 84 81 78 74 73 74 75 80 82 85 85 86 88 89 90 90 90 92 97 98 98 99 99
74 73 71 68 64 65 76 79 82 83 82 84 86 86 87 90 89 88 86 85 82 85 87 85 84 83 80 76 84 85 87 85 87 88 91 91 92 91 93 91 90 94 96 99
76 67 68 70 76 75 79 88 93 94 93 90 88 93 90 91 85 85 88 85 88 90 91 88 85 82 89 91 90 92 92 91 89 91 94 96 96 96 94 94 93 95 98 98
65 72 71 78 85 84 88 90 88 90 91 94 89 92 89 89 89 92 92 93 95 96 95 94 98 98 96 99 95 96 94 98 97 99 99 97 99 99 100 95 97 98 100 100
73 80 81 85 83 86 82 78 78 81 79 88 90 91 93 94 97 97 99 100 100 99 99 99 98 98 100 99 98 100 97 95 97 96 97 99 100 100 98 100 99 94 94 99
81 72 70 83 87 84 81 82 82 82 77 78 83 87 89 90 94 95 99 100 100 100 100 99 99 99 99 100 100 99 98 100 98 100 100 98 97 98 100 100 100 99 97 96
88 86 88 84 88 87 84 78 82 82 81 81 83 83 86 92 95 93 93 93 99 98 99 99 100 100 99 99 99 99 100 100 100 100 100 100 100 100 100 100 100 100 100 99
91 92 93 91 91 85 80 80 80 81 84 84 84 86 89 90 91 84 84 86 97 96 88 100 99 100 99 99 99 99 99 99 99 99 100 100 100 100 100 100 100 100 99 99
72 69 79 79 87 85 81 78 78 79 80 80 81 90 92 91 86 93 91 85 75 70 65 90 100 98 93 93 98 98 99 99 99 99 99 99 99 100 100 100 100 100 99 99
76 80 82 84 82 84 85 84 82 82 86 87 90 92 89 90 92 99 87 82 78 76 60 87 89 81 83 90 95 98 98 96 96 96 100 100 99 99 100 100 100 100 100 100
79 80 83 84 84 86 87 84 85 89 86 89 92 96 97 90 94 97 83 83 71 67 62 79 90 82 78 86 89 98 91 95 98 95 96 100 100 100 99 100 100 100 100 100
83 84 86 88 88 86 87 86 88 91 85 89 94 96 95 93 91 95 90 84 61 68 86 75 87 78 82 81 98 92 89 92 92 95 97 99 98 98 99 100 100 100 99 99
88 90 89 88 87 82 73 74 75 73 75 79 86 91 96 97 93 90 86 90 86 83 94 85 84 86 85 99 98 93 91 93 96 98 98 98 96 97 97 98 98 98 98 99
83 87 89 90 85 78 77 80 73 66 68 71 82 90 94 92 94 96 94 85 86 92 100 100 97 94 96 100 98 97 97 96 96 96 98 98 99 98 97 97 98 98 97 97
87 88 89 89 90 92 94 82 80 66 66 71 82 87 90 97 96 93 88 92 98 100 100 99 100 100 97 99 98 98 96 95 95 96 95 99 98 99 98 98 96 97 97 97
87 90 93 96 99 96 92 85 78 73 73 69 77 85 86 87 95 94 99 99 100 100 100 99 100 99 99 95 95 96 96 92 90 91 94 95 93 94 96 96 94 96 98 96
84 86 87 89 90 88 84 83 89 82 80 78 70 77 88 96 96 93 90 97 100 100 100 100 99 99 93 91 84 79 81 87 89 88 90 92 93 94 89 90 89 94 97 98
76 80 81 83 77 82 87 92 95 93 84 79 83 78 81 78 79 84 89 98 100 100 100 100 100 99 97 91 80 66 70 72 78 81 81 79 82 85 88 87 83 82 83 79

GFSNGP_925_rhum_093.txt.gz
RH
82 79 76 74 77 77 82 65 70 58 56 50 56 52 49 51 54 55 56 54 59 61 63 62 61 59 56 52 54 65 68 73 73 73 73 72 72 70 69 67 67 66 67 69
77 72 70 67 74 79 78 73 69 68 67 53 46 52 50 53 54 58 56 57 61 63 65 66 66 64 62 61 58 61 73 72 74 74 72 71 70 70 69 69 70 72 73 73
86 78 68 67 61 71 74 73 72 75 63 58 55 53 52 55 60 60 63 62 65 68 70 68 68 68 67 67 68 65 68 77 77 77 75 72 71 70 70 71 72 72 72 73
92 72 74 54 53 56 62 60 63 66 62 61 58 66 70 71 70 74 73 70 69 71 70 67 68 67 67 68 72 75 68 74 80 80 77 75 75 74 75 76 76 76 76 77
93 94 60 56 55 54 54 62 70 69 62 66 65 62 71 74 72 73 79 78 72 70 70 68 67 68 69 68 72 78 79 74 79 80 80 78 78 77 77 78 80 77 78 79
86 97 66 53 51 49 45 60 68 73 73 69 65 73 75 72 76 76 75 74 76 75 73 70 68 69 70 70 72 76 82 80 77 82 80 79 78 79 81 84 81 83 84 85
84 87 72 60 52 46 54 52 68 68 66 64 69 68 68 75 75 77 78 76 75 74 76 74 71 72 72 73 72 74 81 84 84 85 83 78 77 80 83 84 85 86 88 89
89 93 82 55 52 52 50 68 70 72 71 73 71 68 71 76 80 83 85 81 80 85 82 76 74 75 76 76 75 77 77 84 88 88 90 85 82 84 86 87 89 93 94 94
77 71 58 64 57 64 70 74 70 72 74 73 70 72 80 82 84 86 84 84 82 84 85 80 80 80 80 74 76 80 83 82 89 91 88 88 86 87 92 94 94 99 100 99
67 64 64 69 66 64 65 67 78 76 76 75 78 81 84 86 88 88 85 86 84 84 86 85 82 81 86 85 80 84 86 88 90 93 91 90 92 94 94 96 100 100 100 100
75 67 70 71 69 72 80 81 84 83 83 85 88 87 89 92 91 89 89 89 88 91 92 91 89 88 88 90 92 89 91 92 91 94 98 95 95 94 96 94 91 93 94 94
75 64 63 64 75 76 85 88 92 89 90 90 91 94 92 92 90 92 95 93 94 96 94 93 91 93 96 98 97 99 99 94 95 94 98 98 96 98 98 96 95 96 94 92
60 73 71 78 84 82 88 92 90 90 90 89 87 90 90 88 87 94 92 89 92 98 100 99 99 99 98 98 98 99 100 99 99 100 100 100 100 100 100 100 97 96 96 99
76 81 83 87 85 88 85 84 78 83 88 92 87 84 87 86 87 90 93 92 93 98 96 99 100 99 99 99 99 99 99 100 100 100 100 100 100 100 100 100 100 98 96 97
84 72 70 83 89 89 83 86 83 84 80 71 76 80 84 84 86 89 91 91 89 93 91 95 99 100 100 99 100 100 99 99 100 100 100 100 100 100 100 100 100 100 97 98
88 88 89 86 89 89 89 86 85 84 78 78 73 79 82 84 86 85 88 84 89 92 90 90 90 97 99 100 100 100 100 99 99 100 100 99 100 100 100 100 100 100 100 98
94 97 92 89 92 91 90 85 86 83 83 83 82 79 82 84 87 86 84 86 89 86 73 71 74 93 100 100 100 99 100 99 98 99 99 99 99 99 100 100 100 100 99 99
70 72 80 77 85 89 88 84 83 82 85 79 81 84 88 91 90 85 86 98 90 75 66 58 84 98 92 85 96 99 99 98 99 99 98 98 99 99 99 100 100 100 99 99
76 80 80 81 80 84 84 84 82 80 82 84 90 92 89 90 89 86 89 100 89 83 59 64 68 90 86 75 89 96 95 94 97 97 97 99 99 100 99 99 99 99 100 100
82 79 81 83 84 85 86 84 84 86 84 89 91 95 97 92 89 91 92 98 93 86 65 69 78 82 84 72 78 98 92 91 95 96 96 99 97 100 99 99 99 100 100 100
83 83 84 86 87 85 87 86 88 87 76 78 90 94 93 89 91 93 100 96 79 82 95 86 94 86 83 77 84 99 90 88 92 96 99 99 99 98 98 97 98 98 100 99
86 88 88 88 90 87 80 77 77 78 78 71 69 74 84 90 92 93 92 94 86 88 88 92 98 96 93 93 94 100 97 96 97 98 96 98 99 99 97 96 97 97 97 98
86 86 85 87 89 87 81 80 83 83 82 73 68 69 79 83 93 99 95 90 92 94 97 95 98 99 98 98 97 98 98 97 97 97 96 97 99 97 97 97 97 97 97 97
84 86 88 89 93 95 96 86 89 89 82 74 73 71 78 93 90 92 91 87 88 95 99 99 97 98 98 98 97 98 98 97 96 96 96 98 98 99 99 97 98 97 97 97
86 91 95 98 99 95 91 86 86 79 78 79 75 69 67 86 95 89 95 98 99 99 100 98 98 98 96 96 98 94 95 95 95 96 94 96 91 90 90 93 97 99 100 98
81 83 86 86 88 88 88 89 95 92 93 93 86 77 68 72 88 98 97 98 100 100 99 100 100 99 98 97 95 81 77 78 83 86 94 94 94 94 92 89 88 84 91 95
73 79 82 76 79 88 91 97 98 95 90 94 97 84 75 75 83 82 82 88 100 100 99 99 100 100 100 99 99 95 78 65 70 76 94 91 95 90 85 84 80 82 82 86

GFSNGP_925_rhum_096.txt.gz
RH
64 61 64 63 65 58 74 54 53 47 45 42 40 38 38 40 41 42 41 42 47 46 43 46 49 51 56 57 60 65 75 76 75 76 76 77 78 78 77 75 74 74 75 75
62 54 54 64 62 64 60 55 54 48 50 37 40 39 39 42 44 45 46 47 49 49 49 51 53 57 60 60 62 69 65 72 80 77 75 74 78 79 77 76 75 73 76 76
74 61 53 52 54 58 61 60 53 48 50 47 45 45 46 50 48 52 52 52 51 51 52 54 57 63 61 64 67 69 72 68 75 84 82 81 77 75 78 80 81 81 82 82
73 58 63 50 48 50 51 55 55 55 52 50 51 57 58 53 52 54 58 56 52 53 56 57 61 61 65 65 66 72 77 78 76 83 83 82 84 84 85 85 84 84 85 85
68 63 54 51 52 50 48 52 59 53 49 51 57 56 60 56 56 58 58 58 61 63 64 64 62 64 67 65 66 68 71 77 80 81 84 86 88 88 90 90 91 92 91 94
69 68 56 46 44 43 41 43 55 54 52 54 53 56 56 58 57 53 56 60 62 65 65 62 64 70 72 67 70 68 75 83 86 86 86 87 87 91 86 87 83 85 85 90
59 64 48 42 46 39 47 43 56 55 54 55 54 50 56 56 57 63 66 67 71 69 70 74 76 77 75 73 72 77 82 86 90 91 92 90 92 90 81 86 88 86 91 88
62 67 63 46 50 44 39 56 54 55 55 56 56 56 59 59 61 65 67 70 74 74 74 79 81 81 76 77 79 81 84 85 89 92 95 98 97 100 92 90 94 97 92 88
54 46 46 47 45 48 49 52 57 54 59 56 56 58 62 62 60 65 67 68 72 73 73 72 76 79 77 79 84 83 82 80 82 89 96 99 100 98 99 96 100 100 100 91
56 50 50 51 54 54 55 54 57 57 60 59 59 64 64 64 67 70 70 73 78 77 75 74 78 82 82 86 88 89 88 89 89 89 90 98 100 100 97 99 98 99 99 100
53 52 58 54 53 51 58 62 64 65 64 66 69 70 72 73 74 75 80 85 86 87 88 87 84 83 85 92 96 95 96 98 96 96 95 94 98 100 100 100 98 100 98 98
42 38 36 42 48 54 62 65 65 68 75 75 76 75 77 72 72 72 78 81 85 88 89 88 94 91 93 100 100 100 100 100 100 100 99 100 99 99 99 100 100 100 99 94
39 47 54 60 52 57 60 68 72 70 72 74 76 78 78 79 83 85 85 86 84 87 91 88 93 93 98 100 99 100 100 100 100 100 100 100 100 100 100 97 100 100 100 100
55 58 67 67 64 65 67 71 78 72 73 78 79 79 79 80 81 81 84 89 91 91 87 85 86 87 94 99 100 98 99 99 100 100 100 100 100 100 100 100 100 100 99 100
60 61 56 57 67 71 70 72 73 70 69 69 69 70 72 71 71 75 81 86 88 84 79 71 67 67 74 98 100 99 99 99 98 99 99 100 100 100 100 100 100 100 100 100
65 68 70 68 72 73 72 73 70 70 68 67 66 66 68 71 71 73 75 83 84 79 79 81 72 68 78 97 100 99 100 98 100 100 99 99 99 99 99 100 100 100 100 99
76 84 81 79 77 73 73 67 67 68 69 69 67 71 75 76 75 74 74 76 83 91 85 79 78 74 89 99 100 98 99 98 94 99 98 100 98 98 99 99 100 100 100 100
63 58 63 60 66 69 72 71 72 72 72 71 74 78 78 76 73 72 75 78 86 90 84 74 62 67 94 99 98 91 91 87 88 91 94 95 95 99 99 99 99 99 99 99
63 63 66 67 67 68 70 73 77 77 78 79 81 80 79 80 80 81 81 82 86 83 76 80 65 70 88 94 87 88 89 90 83 84 84 84 87 92 98 99 98 99 99 99
72 73 74 75 80 78 79 82 81 81 80 84 86 85 83 78 79 83 84 84 84 83 83 87 88 84 94 94 82 90 93 90 84 84 87 87 86 93 96 99 100 100 99 99
72 75 76 80 84 85 86 87 87 89 85 84 81 73 71 72 74 82 87 89 79 85 85 90 94 95 99 99 98 92 95 97 94 92 94 95 95 94 95 98 99 100 100 99
73 76 82 81 82 81 83 84 83 82 82 84 81 78 74 72 72 83 86 90 87 88 96 93 90 94 99 99 99 100 99 100 100 99 96 93 92 98 96 99 100 100 100 99
82 87 86 81 80 81 84 84 84 86 87 87 86 80 76 75 75 80 80 84 94 93 93 99 95 98 97 97 97 100 100 100 100 100 100 99 98 100 100 97 100 100 100 100
79 86 88 90 92 94 88 87 91 86 84 80 77 76 83 79 72 83 91 92 91 88 91 95 98 97 99 98 99 100 100 100 100 99 97 96 97 99 100 100 100 100 100 99
86 89 94 98 94 80 91 89 83 79 83 83 84 80 80 84 89 86 100 96 96 99 100 100 98 100 99 98 98 100 100 100 98 98 96 97 97 96 97 92 95 99 100 100
82 73 79 83 82 86 88 89 85 85 83 76 75 80 86 89 82 83 92 100 100 100 99 99 100 100 100 100 100 100 100 96 94 95 97 97 96 96 96 95 93 88 84 89
81 81 78 79 85 85 87 82 75 73 78 80 83 87 91 94 94 96 94 94 97 100 99 95 94 99 100 100 100 100 100 99 88 75 89 97 97 96 96 91 87 84 86 81

GFSNGP_925_rhum_099.txt.gz
RH
52 50 54 54 50 43 59 40 53 42 44 39 36 37 36 36 36 37 39 42 43 42 40 42 44 46 50 52 55 59 58 61 67 72 74 73 73 74 75 75 76 75 72 71
54 46 49 58 51 47 45 39 37 38 43 34 35 32 35 37 38 41 42 43 44 43 43 45 47 50 50 52 55 60 60 60 60 72 74 76 75 77 76 74 72 71 71 73
69 51 47 49 51 50 52 47 38 44 41 35 40 39 40 43 42 45 46 46 46 45 47 49 51 54 53 55 57 59 64 66 67 67 75 75 77 76 78 80 77 76 75 74
67 56 65 51 42 45 46 47 46 46 44 39 40 47 47 42 43 48 50 49 48 49 51 53 54 53 56 57 57 61 64 65 69 73 74 77 78 79 78 79 79 80 79 78
62 49 44 44 44 44 46 46 42 41 42 46 52 50 54 49 48 49 48 46 48 49 49 49 49 54 59 60 58 61 61 67 72 76 76 76 81 83 82 83 83 83 82 82
59 64 54 40 40 36 36 41 43 44 40 47 52 57 54 53 46 45 47 50 54 54 53 53 58 62 65 62 63 63 69 75 77 80 83 81 79 85 87 88 87 87 87 86
50 56 40 37 40 33 44 49 44 42 44 46 51 52 53 47 48 51 53 56 61 58 59 63 69 72 71 69 70 75 76 76 78 82 85 88 88 87 90 96 94 95 93 89
49 58 58 37 42 38 41 44 46 46 48 49 50 50 49 49 52 54 56 57 59 62 62 64 68 70 69 70 73 75 76 75 74 75 78 87 95 96 93 95 92 92 90 88
44 42 39 37 39 38 38 45 47 47 47 46 48 48 51 53 51 52 57 58 58 62 62 60 62 68 71 71 76 79 78 76 78 80 81 83 91 98 98 97 90 92 92 87
49 33 40 40 41 41 43 43 46 45 49 48 48 51 52 52 54 58 60 63 68 70 67 68 70 71 70 73 79 84 82 84 83 89 92 92 89 94 99 99 95 95 99 99
43 38 44 43 40 40 47 49 52 52 52 51 53 55 56 56 59 64 67 73 80 84 83 83 83 85 86 84 92 96 97 97 98 99 99 99 98 100 100 96 100 99 99 100
36 28 31 30 37 40 49 55 54 56 62 62 61 59 62 61 61 63 65 70 73 78 82 82 85 85 87 93 97 100 100 100 100 100 100 100 100 100 100 99 100 100 100 100
29 35 37 47 38 42 48 52 53 55 55 60 64 63 64 65 70 75 80 79 83 83 82 84 83 81 83 82 95 100 99 100 99 100 100 100 100 100 99 98 100 98 100 100
41 48 56 52 51 48 48 54 64 60 61 62 63 71 68 69 70 70 69 70 76 82 83 83 76 66 59 63 81 97 99 100 100 100 100 100 100 100 100 100 99 99 99 100
44 43 48 44 49 53 56 61 66 63 61 65 63 63 63 63 59 56 58 63 71 76 78 75 70 69 59 59 74 92 96 98 96 95 97 100 100 99 98 100 100 100 99 100
47 53 55 58 58 61 61 63 62 59 58 58 58 59 58 57 58 59 60 63 66 69 72 81 77 71 69 66 78 88 98 91 92 90 87 94 98 98 98 97 100 100 100 100
63 74 68 66 66 63 62 58 57 56 59 59 58 57 59 62 62 62 61 62 65 68 74 82 85 76 73 76 82 94 88 81 80 79 83 85 89 91 93 98 98 100 100 99
50 49 54 51 58 57 58 58 60 61 62 60 59 62 63 63 61 60 62 65 69 72 74 78 80 82 77 80 92 90 87 81 80 80 80 82 79 80 82 89 99 100 100 99
52 54 53 53 52 55 58 63 65 66 65 66 67 66 65 65 66 66 68 71 71 71 71 73 78 82 88 82 95 98 88 81 81 79 78 81 84 80 82 85 90 92 98 99
61 59 59 62 66 65 72 74 73 72 70 69 70 72 71 66 65 65 65 68 68 69 75 83 87 90 92 92 99 99 96 86 85 83 86 88 97 96 92 90 91 93 95 97
69 70 70 75 77 77 79 81 82 83 81 82 78 71 68 68 69 68 66 66 62 68 80 86 88 91 91 96 100 99 97 96 96 93 94 96 97 98 97 98 95 89 92 96
66 72 78 74 74 74 77 78 77 77 77 78 80 82 79 76 71 69 69 72 72 84 92 95 97 97 97 99 99 98 97 98 97 98 97 97 99 98 98 96 97 97 93 96
75 86 82 73 71 68 75 78 79 80 80 82 84 83 78 74 74 75 74 69 88 92 98 93 89 98 99 99 98 98 98 98 97 97 98 97 97 97 97 96 96 96 96 96
83 88 85 82 83 81 78 81 84 80 78 75 74 76 80 79 76 72 70 81 95 94 91 92 93 97 97 96 98 99 98 93 95 95 97 97 96 96 96 96 96 96 97 97
80 87 88 92 93 78 86 83 73 69 71 71 72 73 76 80 83 82 85 86 90 94 97 98 99 100 96 93 96 94 93 94 98 99 98 96 96 96 97 97 95 95 95 96
84 74 73 76 70 74 74 77 72 70 66 59 59 63 74 79 84 88 91 91 94 95 98 98 96 95 93 97 97 99 97 97 96 93 91 95 97 96 96 96 96 96 96 91
75 73 77 78 76 75 75 70 64 61 65 65 68 74 71 70 73 77 79 83 87 88 92 96 94 92 92 93 97 98 100 100 99 99 97 84 97 96 96 96 96 92 86 82

GFSNGP_925_rhum_102.txt.gz
RH
53 53 57 58 55 49 58 50 70 58 57 52 52 51 49 46 45 49 52 53 54 54 54 50 51 51 52 54 55 57 58 58 58 66 72 70 69 70 72 75 80 81 80 80
56 48 52 61 55 56 56 44 47 48 54 44 44 43 47 46 47 51 52 53 53 54 54 55 55 53 55 56 57 59 63 65 65 63 66 73 75 74 73 73 74 75 74 73
76 59 57 68 58 55 53 56 46 59 52 44 45 47 52 51 53 56 56 56 58 60 59 56 55 54 58 58 58 60 63 65 67 70 70 70 73 76 77 76 76 73 72 72
86 68 79 58 43 46 50 50 49 52 46 48 59 60 59 55 59 63 59 59 59 56 52 50 50 55 57 58 59 61 63 67 71 74 76 76 75 78 78 78 78 78 76 75
88 74 46 49 48 46 50 51 42 52 54 61 63 62 64 58 58 58 55 54 54 54 53 52 59 63 65 64 64 65 69 72 73 77 79 81 82 80 82 82 82 80 80 79
79 78 63 50 43 35 37 56 49 42 50 63 63 79 80 59 54 54 52 55 58 57 56 59 64 65 69 70 70 74 76 76 76 77 79 83 86 88 88 87 87 87 86 85
71 74 57 45 44 36 52 61 49 42 49 58 66 70 65 57 56 54 56 58 61 61 61 65 68 71 72 71 75 75 76 76 76 75 76 78 83 89 93 88 89 89 91 92
61 67 75 45 43 45 52 50 49 53 50 65 65 60 57 57 59 57 58 57 59 62 63 62 63 68 71 72 72 76 78 78 76 76 79 82 81 87 94 94 94 94 96 96
54 63 44 43 45 41 45 54 51 58 52 57 59 58 58 60 54 57 58 60 62 68 69 67 73 77 76 75 76 79 79 80 85 78 78 82 81 89 91 93 100 98 95 93
53 43 48 45 46 42 44 48 51 55 54 52 56 57 57 58 61 65 65 70 76 81 82 81 83 82 83 84 85 84 82 90 95 96 96 96 95 95 96 96 100 99 96 97
54 45 44 44 47 51 50 52 56 56 57 55 56 60 58 63 65 66 67 68 72 76 78 77 79 80 82 83 85 88 95 94 97 97 97 96 96 100 100 99 100 100 100 100
61 43 47 41 49 47 59 63 64 64 65 65 61 62 64 69 64 69 76 78 78 79 77 76 80 81 82 82 80 84 90 94 93 96 95 97 98 98 100 99 98 99 99 100
40 36 48 46 42 48 59 64 64 66 67 73 67 65 63 70 70 73 77 76 76 77 81 82 80 79 78 68 63 73 85 96 91 97 98 100 97 99 98 98 100 99 98 99
49 56 56 50 54 54 57 61 61 60 62 62 62 69 70 70 70 71 71 67 67 72 76 79 78 78 75 69 58 62 81 84 91 93 92 90 95 94 100 100 97 97 98 99
54 50 52 57 58 60 63 72 74 74 71 70 67 68 67 70 69 63 58 58 61 66 69 70 72 75 76 72 68 65 80 84 89 88 86 82 83 90 90 92 91 95 99 99
54 60 58 65 68 69 73 76 78 75 70 69 68 64 63 61 59 59 60 61 63 68 66 69 72 75 82 82 74 72 81 85 91 84 83 84 80 83 87 84 84 88 96 99
70 76 74 74 76 76 75 74 73 68 68 68 65 62 59 60 63 64 63 62 61 62 65 68 71 74 79 82 76 76 83 88 88 80 81 82 81 79 81 82 80 81 91 100
59 63 65 69 73 74 74 71 66 64 70 63 61 60 63 66 71 66 64 64 66 67 68 69 72 74 77 79 81 80 90 96 92 84 82 84 81 81 80 78 83 84 88 91
62 66 67 67 68 70 71 73 68 64 64 64 64 68 67 67 67 68 68 70 72 76 68 68 74 78 80 81 87 89 95 99 98 94 91 93 92 89 93 94 88 86 83 90
66 65 62 64 58 64 76 68 69 71 70 70 70 72 75 74 70 66 66 68 69 67 64 66 72 80 85 87 91 96 100 99 99 98 98 98 98 96 90 92 97 97 81 84
76 76 80 80 79 72 72 73 75 78 75 75 78 81 78 73 73 74 76 80 66 65 67 74 85 91 95 96 97 100 100 97 100 97 99 100 98 93 88 95 97 97 98 94
78 82 86 85 86 85 79 78 77 78 79 79 78 78 82 84 82 75 70 73 67 71 78 88 94 85 89 96 97 94 99 97 99 98 98 98 98 99 96 88 97 96 97 96
84 85 82 81 82 80 76 75 75 75 76 79 82 84 84 78 76 80 87 70 75 75 84 90 93 88 89 90 86 84 92 95 99 96 89 90 92 99 98 98 97 98 97 97
88 85 82 76 74 78 86 84 82 80 77 72 68 69 74 78 75 74 80 79 77 82 91 87 92 95 94 92 89 88 86 98 96 87 92 93 93 95 97 97 96 96 96 96
87 90 87 85 87 88 85 83 68 67 70 68 65 64 67 72 78 75 80 82 84 94 93 95 97 100 96 94 91 91 90 91 90 94 96 98 97 99 97 97 97 96 96 96
87 90 86 80 75 75 71 67 70 70 62 60 56 58 66 73 64 68 74 80 78 83 85 91 97 98 97 94 90 88 91 92 93 96 98 94 92 91 97 96 96 96 96 96
74 77 76 75 70 69 69 67 61 62 62 62 63 69 75 63 66 72 74 72 75 79 87 88 88 93 96 96 96 94 90 96 96 96 97 99 99 93 96 96 96 96 89 89

GFSNGP_925_rhum_105.txt.gz
RH
57 57 59 64 67 64 65 63 73 83 72 66 62 61 57 55 57 59 60 61 63 67 69 61 59 57 57 57 58 58 59 61 64 63 62 62 63 67 70 72 75 79 81 82
62 56 58 63 61 64 59 56 61 63 64 53 55 55 56 57 59 62 63 64 66 66 66 65 62 60 60 60 60 61 62 65 66 65 66 68 69 71 72 73 73 74 76 77
79 59 62 72 61 61 59 61 55 68 57 51 57 57 60 63 63 66 66 67 70 72 67 61 62 59 60 60 62 64 67 71 71 69 70 70 73 74 76 77 77 76 75 74
88 68 81 58 45 48 57 54 57 58 55 58 68 71 68 64 71 69 66 64 64 61 58 60 63 63 62 64 67 69 76 74 73 74 77 77 77 78 79 81 81 81 80 78
85 88 53 55 51 52 52 52 50 68 73 71 68 66 69 63 64 64 64 64 63 59 59 62 63 65 66 72 73 77 78 77 77 77 78 80 81 84 84 88 88 86 85 84
79 81 66 47 45 38 38 57 50 59 72 72 68 76 81 62 60 64 62 63 64 62 63 65 69 69 72 76 79 82 82 80 79 79 80 83 84 86 88 93 90 85 83 86
77 82 64 44 45 38 46 42 54 52 66 73 74 70 71 63 60 60 61 62 62 62 65 64 67 71 72 71 78 73 74 78 79 79 80 77 81 81 80 83 86 87 94 86
74 75 74 49 43 49 47 54 52 56 61 68 73 70 66 64 66 64 63 60 61 64 65 69 73 73 76 78 80 76 76 74 77 82 86 91 85 81 79 77 77 80 86 97
66 66 50 51 43 42 57 60 59 61 68 68 69 66 67 69 68 66 63 65 70 74 77 81 82 83 83 85 84 84 84 80 82 82 91 92 93 97 100 98 97 97 95 96
54 44 52 51 49 46 48 57 59 59 64 64 66 67 68 68 70 72 70 75 77 77 80 79 78 78 79 80 80 83 85 87 92 88 87 88 90 92 97 97 99 99 99 99
66 55 46 48 56 54 53 60 60 61 59 62 66 69 69 72 75 73 74 74 76 79 81 79 77 77 78 80 81 81 83 82 87 84 84 92 93 98 100 95 99 100 100 100
63 53 48 45 52 56 62 68 69 69 68 64 66 72 72 77 72 74 77 78 78 78 78 79 78 77 78 80 80 80 80 85 84 88 84 88 88 89 90 91 91 98 99 100
47 42 49 41 52 58 60 70 72 72 72 76 70 68 70 76 74 74 76 76 76 76 75 75 74 73 75 77 74 63 70 76 84 83 85 85 85 81 84 87 94 89 91 94
44 56 52 50 52 60 62 70 68 67 68 70 71 68 71 75 73 74 74 68 67 68 67 67 70 71 71 77 77 71 66 68 82 82 86 86 84 86 80 84 88 89 89 92
58 50 47 53 62 66 70 77 78 80 78 76 69 74 74 77 77 72 64 60 61 63 65 67 69 67 68 73 82 82 75 72 80 83 87 90 87 88 80 85 85 82 82 86
60 61 64 64 69 74 81 83 81 82 80 79 79 76 69 67 67 64 61 61 65 66 62 64 67 65 69 74 78 80 79 74 86 91 93 89 85 85 82 79 83 85 83 83
70 74 73 74 76 81 77 76 76 77 80 80 76 68 67 66 64 64 62 62 62 63 64 66 66 66 70 75 78 81 80 81 88 96 97 96 94 94 94 92 97 87 88 90
54 53 60 64 71 76 83 82 79 74 77 68 66 68 68 70 73 67 65 67 67 67 64 62 62 66 72 75 78 82 85 87 91 99 99 98 98 98 99 99 99 97 96 95
66 66 70 72 73 73 77 82 75 67 67 67 68 70 66 66 68 69 70 73 72 74 64 62 65 70 74 81 87 89 92 94 100 99 98 100 97 96 98 98 99 99 99 97
70 68 70 73 71 73 80 70 68 70 68 68 69 74 76 73 73 74 71 74 74 70 63 66 72 78 86 92 94 97 98 100 100 97 95 99 99 99 98 96 98 98 98 98
75 77 76 79 78 70 69 70 74 79 76 73 74 77 78 78 75 79 83 87 62 65 73 78 84 89 87 86 88 90 99 96 80 83 96 96 98 98 96 97 89 92 99 98
81 82 83 82 83 85 77 75 74 76 78 80 82 81 80 82 82 77 73 73 66 78 80 82 89 89 90 85 85 85 84 88 94 86 100 99 92 95 92 88 95 98 98 97
84 84 84 85 87 85 83 80 78 77 78 76 77 81 85 79 73 81 86 75 90 83 87 88 89 86 88 89 87 86 91 89 79 82 99 86 84 86 91 98 99 99 97 96
86 85 84 81 81 84 88 82 77 76 77 80 73 65 66 72 71 70 86 76 69 81 92 90 89 95 95 92 92 94 90 87 86 88 95 92 91 93 96 98 98 97 97 97
86 87 84 84 86 85 79 85 81 72 67 67 66 65 65 67 72 74 70 68 72 75 79 78 88 87 94 94 94 91 88 89 91 94 89 92 98 98 99 97 98 96 98 97
92 89 86 79 77 79 82 80 67 71 65 58 57 59 73 71 60 64 68 64 63 71 67 77 90 96 92 87 93 91 91 88 89 92 95 90 95 97 98 97 97 96 96 97
88 87 86 80 75 73 69 65 68 65 61 58 62 70 72 61 64 69 71 66 68 73 83 91 95 97 99 96 91 91 91 92 94 94 93 94 90 92 95 97 97 96 97 97

GFSNGP_925_rhum_108.txt.gz
RH
61 61 59 62 72 66 74 72 71 86 80 71 66 65 66 66 65 67 69 71 73 77 77 70 66 64 63 64 65 65 67 67 67 65 65 65 67 68 69 71 73 74 76 77
62 59 62 60 64 67 68 69 78 76 70 58 59 60 66 67 67 72 73 73 74 74 75 74 67 62 59 65 66 65 70 70 66 62 64 68 69 70 72 74 74 74 75 76
67 67 64 57 60 63 62 61 65 78 63 60 61 62 68 69 68 72 74 75 74 72 70 69 67 64 66 66 65 71 72 72 72 71 71 72 73 74 76 78 81 83 82 80
83 68 66 49 49 49 58 56 56 59 60 60 65 69 66 66 74 77 73 68 67 67 68 69 69 67 71 72 77 78 77 77 78 79 80 81 81 81 81 81 82 86 86 88
84 87 54 50 50 54 52 56 57 67 72 76 75 69 67 65 66 70 67 69 68 66 69 70 71 70 69 74 77 78 80 80 79 80 82 82 82 82 85 84 81 81 81 81
84 80 65 42 47 42 36 60 54 69 76 78 72 82 80 66 62 65 64 64 64 63 65 66 73 74 72 79 83 82 80 80 81 81 83 90 93 85 79 78 79 79 78 76
80 86 68 49 47 39 48 42 60 68 70 76 76 66 64 69 66 65 65 64 64 67 72 76 77 77 80 84 87 85 83 82 82 82 85 95 94 95 97 99 94 77 74 75
80 79 68 52 46 50 45 57 55 62 71 74 67 76 72 69 72 71 69 67 68 70 77 82 82 80 84 85 85 83 83 84 89 91 86 84 88 88 90 90 94 99 96 93
71 69 50 54 42 44 58 60 60 63 68 69 75 74 72 73 74 72 66 68 73 75 79 79 76 74 76 79 80 80 79 80 79 67 62 75 83 85 89 92 97 90 88 87
57 49 55 52 49 47 61 59 60 61 70 72 71 71 72 73 73 74 71 72 75 75 74 74 71 68 67 71 76 79 78 79 76 69 77 78 85 86 89 88 94 90 91 91
69 62 57 54 56 52 55 60 63 63 67 69 69 73 72 75 76 74 74 76 77 76 78 77 76 76 75 74 79 81 82 82 79 78 76 82 83 87 86 92 87 86 86 89
58 53 50 46 49 56 59 68 68 68 68 67 69 72 74 78 72 74 79 77 79 80 79 74 74 73 69 74 80 82 81 77 74 80 80 80 83 84 80 81 83 85 88 87
45 44 52 44 46 59 57 70 72 70 68 74 70 68 72 80 75 75 76 79 80 75 71 71 69 68 63 70 78 79 71 69 70 79 86 83 86 84 90 86 83 86 89 89
57 50 54 52 50 60 60 67 68 68 67 68 69 69 70 76 76 80 80 72 68 66 65 65 67 66 64 68 71 78 78 75 78 79 84 86 88 90 92 86 83 86 80 84
50 59 47 46 55 61 66 79 81 80 81 82 73 74 74 82 81 76 69 67 63 63 62 65 67 64 64 70 74 77 81 80 78 79 86 92 97 96 91 85 79 84 85 79
51 60 63 62 60 69 77 82 80 82 85 84 83 80 74 71 70 69 66 63 66 67 59 65 67 62 66 70 75 79 81 82 85 88 89 94 98 98 97 96 94 94 98 91
60 64 72 74 71 76 81 76 69 74 81 84 80 73 74 74 73 70 65 61 63 65 64 67 64 64 64 69 76 80 83 83 83 93 92 96 97 100 99 100 100 99 99 94
56 47 58 62 67 73 82 83 82 80 81 73 71 74 77 78 76 68 63 62 66 69 66 64 63 63 69 71 76 82 87 87 91 95 100 99 100 98 100 100 100 100 98 97
60 58 65 68 69 72 76 83 81 72 72 69 74 78 72 70 68 65 69 74 73 74 66 64 65 69 73 80 88 94 97 99 100 98 99 89 91 92 96 97 100 94 98 99
69 69 67 70 70 74 83 75 73 74 70 70 72 74 76 71 70 72 76 76 72 73 66 68 73 78 83 88 87 89 89 92 98 100 81 81 93 97 93 96 100 98 90 96
75 75 74 79 84 76 73 71 74 79 75 72 74 77 75 73 77 76 80 86 68 69 79 80 80 86 86 88 84 82 84 82 80 79 86 90 96 96 92 84 87 92 97 98
79 79 79 80 85 84 78 74 72 75 78 78 77 77 81 81 81 82 75 74 72 84 81 81 80 88 88 86 86 83 84 85 79 80 78 82 99 98 94 93 90 97 97 97
85 86 83 84 86 85 85 81 78 77 80 80 82 80 80 80 74 75 84 81 81 70 84 80 79 92 89 91 88 86 88 87 83 89 80 91 99 86 86 89 98 98 98 97
84 86 86 83 84 89 92 88 82 78 75 76 78 78 68 70 72 75 84 70 62 82 78 70 86 90 83 85 89 91 90 87 88 88 89 100 99 88 95 96 98 96 96 98
86 85 90 91 92 90 84 84 84 83 78 71 69 70 69 68 64 77 70 62 58 61 65 59 89 96 90 91 88 87 89 90 90 86 89 93 89 87 92 97 97 98 96 98
91 92 89 86 84 82 82 85 81 75 69 68 65 65 68 69 61 63 66 61 59 64 65 74 88 96 95 94 99 97 97 96 94 89 92 95 98 96 94 91 96 97 96 96
92 90 89 87 82 80 81 80 72 74 63 54 61 68 69 64 64 62 62 58 61 68 78 80 86 89 90 90 94 95 95 92 97 93 91 89 96 98 95 92 96 98 98 98

GFSNGP_925_rhum_114.txt.gz
RH
70 66 65 68 72 74 78 72 69 79 84 73 72 77 75 73 74 78 80 81 82 81 80 80 80 83 81 76 69 66 65 70 76 73 70 68 68 69 68 68 72 74 73 75
64 54 64 60 59 64 73 82 87 84 76 65 64 67 72 76 78 79 82 82 80 81 84 84 83 86 80 74 69 65 72 78 77 74 74 76 75 74 73 72 71 70 73 74
67 68 61 55 52 62 63 64 77 81 66 72 71 73 76 78 79 80 80 76 79 86 86 84 83 81 80 76 71 69 72 76 77 75 74 75 71 67 69 74 73 74 74 71
89 65 60 37 52 52 63 60 69 62 64 69 66 66 70 74 78 81 81 74 78 82 80 78 79 81 79 75 74 74 77 76 72 70 70 70 71 75 77 80 84 88 83 82
85 86 47 43 50 60 63 55 61 64 62 68 72 66 66 74 75 78 77 72 73 74 75 76 75 78 79 77 79 80 85 83 77 71 65 60 62 69 76 74 74 82 89 93
86 74 36 26 43 47 42 67 46 60 67 80 77 82 77 77 78 80 70 70 73 72 71 74 78 74 71 79 81 82 82 83 79 71 70 75 78 85 87 87 88 85 86 85
81 89 68 46 46 42 52 36 39 66 68 84 78 64 61 79 76 71 71 71 72 73 70 74 79 80 80 83 82 80 80 79 69 61 62 66 69 74 78 83 85 84 73 72
86 88 71 52 48 50 46 48 56 67 73 73 71 70 72 80 79 82 78 77 74 76 78 79 81 80 78 80 79 81 82 78 76 70 69 66 66 70 74 82 84 82 81 80
72 66 45 55 52 44 50 60 51 63 69 72 76 76 79 81 82 81 77 78 74 74 81 83 78 72 73 71 80 81 79 78 77 75 76 73 73 73 70 72 79 82 81 80
61 53 59 52 51 56 55 55 53 61 60 78 74 76 77 80 83 84 78 79 76 80 82 75 75 78 73 72 68 73 77 80 81 80 84 73 68 68 72 74 74 76 88 90
78 64 60 56 58 50 56 58 59 63 66 72 78 76 78 82 83 81 77 76 78 79 77 74 77 71 67 62 65 73 76 75 74 71 69 67 66 68 71 72 77 88 90 89
62 54 47 40 40 45 55 62 61 68 71 73 79 76 80 82 76 75 78 76 81 79 76 73 70 59 59 61 64 64 60 58 62 66 68 70 72 70 72 78 86 96 96 90
55 52 54 52 50 49 54 52 58 70 72 72 77 75 76 82 74 72 72 75 79 78 74 72 60 60 60 60 58 56 56 58 62 67 72 77 80 83 87 79 94 97 93 88
64 63 63 60 56 48 58 58 56 64 67 71 68 72 72 75 73 78 81 72 71 74 74 67 62 55 56 57 57 57 59 63 70 74 78 81 81 84 93 100 100 100 97 99
66 68 57 54 65 62 60 63 67 75 78 81 73 74 76 83 83 80 68 70 74 76 71 63 60 50 54 56 58 60 64 68 72 78 81 82 87 93 97 100 99 100 100 100
64 66 70 72 63 64 68 70 79 74 82 82 84 82 75 70 71 71 72 76 82 82 64 62 58 49 56 59 61 65 67 71 79 87 90 91 91 96 100 99 99 97 93 90
68 60 59 65 71 68 71 65 65 61 71 83 78 75 75 77 77 79 78 76 70 62 54 54 50 55 60 62 64 64 68 75 81 91 95 94 94 94 100 90 92 92 94 93
67 66 67 69 67 66 64 70 72 75 78 70 73 80 84 87 83 83 77 74 73 69 62 57 59 63 64 63 63 69 75 79 86 92 92 86 92 94 100 96 90 97 93 88
70 73 72 78 78 75 71 69 72 69 70 73 83 88 82 80 80 78 74 77 77 78 62 60 64 66 64 61 69 74 80 88 94 92 90 94 94 96 100 84 84 91 93 94
71 72 79 84 80 81 86 77 74 76 75 80 81 86 90 87 82 77 77 80 71 63 57 62 66 63 61 68 76 82 89 89 87 84 84 89 92 99 99 93 94 98 96 92
76 79 85 87 88 79 77 77 81 84 78 84 86 87 86 84 80 77 82 84 68 69 69 70 64 65 70 73 80 84 83 90 90 89 91 92 95 96 96 97 94 97 92 87
77 80 84 85 88 86 75 77 80 82 84 87 86 84 85 86 83 82 77 74 68 72 69 68 73 72 66 67 82 92 97 93 91 91 94 98 99 99 99 98 99 98 91 88
77 79 82 83 88 86 83 82 84 87 87 87 86 84 82 82 81 90 93 79 74 74 72 76 67 63 76 91 92 88 88 88 89 94 97 96 97 97 98 99 99 98 92 93
72 70 77 77 86 90 92 82 86 88 87 85 82 79 78 85 87 79 71 68 70 76 74 60 54 58 83 87 85 86 91 90 91 92 96 97 96 92 92 93 99 98 95 91
70 74 82 94 94 93 87 88 93 91 89 88 86 83 80 78 72 78 70 74 73 64 55 53 59 85 83 74 73 79 91 96 98 100 100 98 97 97 98 95 95 98 97 96
73 76 74 76 83 85 86 91 95 92 92 91 87 83 78 71 64 63 73 70 57 54 57 58 58 64 74 76 78 87 89 81 79 86 98 99 99 98 99 97 98 96 97 98
72 81 90 91 82 85 88 92 97 93 88 82 80 78 70 68 70 67 60 56 55 56 57 60 67 69 73 85 87 86 78 70 70 79 100 96 94 96 100 99 100 100 96 96

GFSNGP_925_rhum_120.txt.gz
RH
60 52 54 59 54 53 78 64 68 51 63 58 54 49 48 53 60 64 63 57 58 59 64 65 66 67 73 80 83 77 78 79 81 76 78 78 76 78 78 76 76 75 72 74
61 51 59 61 47 49 58 58 60 57 57 42 40 43 48 52 58 63 61 56 56 60 63 65 68 68 72 72 79 74 76 80 79 75 75 77 78 78 80 81 82 82 82 82
65 48 48 46 38 44 52 53 49 59 43 41 48 50 47 49 54 57 56 57 56 58 59 64 69 73 67 72 74 72 70 75 72 68 70 76 73 70 72 73 77 78 80 79
75 53 48 29 47 42 47 46 49 49 44 43 38 40 43 45 46 50 54 54 52 54 60 71 79 75 76 79 75 78 78 74 72 66 68 71 72 73 76 76 79 76 75 75
60 53 31 27 36 49 52 38 39 45 41 42 47 51 45 44 45 44 47 50 47 54 58 67 71 75 72 73 74 76 78 73 68 67 64 66 69 74 77 75 77 70 69 77
64 62 33 18 33 42 44 42 37 42 41 46 53 53 43 37 45 48 49 53 53 60 65 67 71 77 72 72 76 76 81 76 66 67 65 66 67 70 72 75 74 69 71 76
61 59 36 28 42 43 40 22 33 42 43 46 53 36 42 43 43 45 50 56 56 61 64 64 72 76 72 74 73 79 80 76 66 63 62 61 68 74 75 71 66 62 63 65
61 67 59 38 46 42 36 35 42 44 45 48 46 46 46 48 49 53 58 61 64 62 65 70 78 78 72 73 76 79 76 74 69 67 69 68 74 73 72 67 61 59 62 64
42 36 36 36 42 38 41 40 39 43 41 48 50 49 49 50 52 54 57 61 64 64 65 69 75 76 67 66 68 67 67 69 70 73 73 75 75 72 69 68 63 59 61 64
47 29 38 34 32 32 33 37 36 39 41 41 45 44 51 50 50 54 60 61 64 65 63 62 70 76 69 64 62 65 62 65 71 74 72 76 75 79 77 71 67 64 65 68
46 37 36 34 34 35 37 39 44 42 43 42 45 46 50 51 52 54 58 64 66 65 62 61 67 73 73 71 66 63 63 66 70 72 75 72 73 72 72 75 76 77 78 84
36 30 27 27 31 37 41 42 39 41 41 41 49 49 46 50 50 54 58 64 69 68 67 65 68 71 73 73 69 62 61 65 67 69 73 74 74 73 73 77 82 83 86 95
32 34 35 35 40 41 46 45 44 45 44 46 43 47 46 50 50 56 60 62 67 68 69 66 69 71 73 73 67 67 63 65 67 74 73 72 74 74 72 87 86 89 89 96
41 45 47 47 46 45 47 43 44 45 47 47 46 46 51 52 54 61 63 66 68 67 69 70 72 72 74 70 63 69 70 70 68 70 76 76 75 76 78 81 83 90 98 98
49 49 44 44 51 42 43 47 50 46 42 42 44 48 49 54 56 59 62 66 69 70 73 75 75 71 71 68 56 63 71 72 75 80 85 85 84 86 88 93 94 94 91 83
51 54 57 54 42 41 43 44 50 50 51 52 53 52 53 57 58 59 63 70 73 74 73 76 76 73 69 66 58 71 74 70 72 82 85 88 91 93 94 93 89 87 86 78
46 45 46 49 47 42 46 48 54 59 61 60 58 59 62 65 68 69 72 77 75 69 70 74 73 74 69 64 58 70 73 77 81 86 90 89 90 91 90 86 82 84 85 84
42 41 39 42 46 49 51 56 63 67 66 66 67 67 66 67 66 62 68 75 78 77 80 76 74 72 70 60 58 71 78 79 81 80 84 90 90 91 90 85 82 86 87 83
49 45 44 50 56 58 63 69 72 74 75 75 76 72 69 70 68 68 72 78 77 76 77 79 72 71 66 58 57 73 79 78 82 84 87 91 94 89 86 84 86 95 91 86
51 53 56 57 65 70 69 71 78 80 77 79 78 79 76 74 78 80 82 77 74 72 72 74 71 65 58 58 68 79 82 81 81 84 90 90 89 88 87 92 94 92 91 90
56 59 59 66 67 66 70 71 77 80 77 81 83 79 78 81 84 85 86 80 76 81 77 71 72 71 72 71 78 87 87 88 89 88 92 92 90 88 86 87 90 93 91 92
57 59 62 58 59 59 64 66 72 75 79 83 84 87 86 86 88 91 91 85 84 82 75 78 79 70 69 68 84 88 89 90 89 90 92 91 88 85 87 88 89 91 94 96
61 70 64 64 64 62 67 68 64 72 80 84 88 90 90 90 90 88 86 86 83 88 76 71 69 69 70 80 85 86 91 95 94 94 92 94 91 89 92 92 92 94 94 97
60 66 68 62 68 74 71 55 63 71 78 84 87 88 92 90 91 91 85 82 81 79 76 78 78 80 82 72 72 72 81 88 93 97 97 98 95 97 99 98 99 100 100 100
61 63 67 74 72 65 65 62 70 74 74 83 87 89 90 90 90 87 90 98 94 81 86 88 84 83 64 67 72 77 86 94 92 92 95 98 99 100 100 100 99 99 99 100
65 62 59 59 59 62 67 72 75 76 80 84 89 91 89 84 84 84 89 93 85 76 75 79 77 74 68 75 80 79 86 87 76 74 80 86 92 99 100 100 100 100 100 100
67 69 70 65 62 66 66 71 82 77 76 87 88 90 88 84 85 84 84 82 77 64 59 59 76 91 83 80 79 79 78 74 65 69 79 83 85 82 80 84 94 100 97 98

GFSNGP_925_rhum_123.txt.gz
RH
59 49 44 46 48 45 61 62 63 44 44 38 41 44 40 39 44 48 50 48 48 50 52 54 52 56 62 70 74 76 82 83 80 81 76 73 81 77 73 72 69 68 71 78
59 34 44 52 45 45 43 42 52 50 49 33 31 33 35 38 43 49 50 48 44 49 52 52 53 58 56 60 64 64 67 66 67 66 70 67 68 69 73 77 75 74 76 81
61 38 43 37 26 32 35 37 44 52 38 28 36 36 36 38 40 45 46 44 44 44 46 50 56 61 57 60 64 63 62 63 59 58 62 64 63 64 65 68 70 70 71 74
70 51 54 27 39 39 30 32 38 39 35 34 32 31 34 34 35 38 41 45 46 42 49 55 63 62 63 66 65 69 67 63 62 59 61 64 66 68 68 71 72 66 67 71
60 45 31 21 28 38 44 32 28 36 34 31 33 44 39 34 33 34 35 38 41 41 45 53 62 62 64 65 69 69 66 59 59 58 57 60 65 72 72 72 70 64 70 71
48 59 35 21 30 33 38 35 30 33 32 32 37 47 34 28 34 35 35 39 43 42 47 51 55 63 63 60 66 64 69 63 60 62 59 63 67 72 72 66 62 63 65 68
60 58 39 24 35 38 40 29 32 34 34 38 44 38 33 36 35 35 37 40 46 46 49 51 55 63 64 61 62 65 73 68 62 62 63 63 67 69 66 60 56 54 55 57
49 55 64 30 43 38 31 31 34 36 36 38 35 36 37 37 40 40 42 44 51 50 54 56 59 66 64 64 66 72 69 68 67 62 60 63 68 67 66 58 53 51 54 55
34 36 26 27 27 27 32 33 31 32 33 37 38 35 33 38 39 41 45 48 53 54 55 57 62 67 62 62 64 65 62 59 59 62 62 66 69 67 66 57 55 49 50 52
35 23 25 23 26 27 25 27 27 29 30 34 37 34 33 33 39 42 44 48 52 56 54 55 58 65 62 57 59 57 52 50 56 61 61 64 67 71 73 62 57 55 54 60
33 28 28 28 26 25 26 30 33 35 36 38 37 36 35 36 39 42 44 49 53 55 56 54 54 58 63 60 57 55 50 49 55 58 64 62 63 60 62 65 69 69 71 75
30 21 22 22 26 29 31 33 34 38 38 36 36 39 39 39 38 41 45 50 56 58 59 58 55 57 62 65 60 56 52 52 56 60 63 66 64 64 67 63 70 68 76 87
26 25 24 25 31 32 34 37 38 38 37 41 40 38 38 39 38 40 45 48 54 59 62 60 58 57 62 66 66 62 55 56 58 64 63 65 67 66 68 75 75 76 83 92
30 29 35 36 38 38 41 41 36 34 35 35 36 36 39 41 41 43 46 49 53 57 61 62 60 60 63 67 70 67 62 56 59 61 66 67 67 68 70 72 76 86 91 98
35 35 34 29 36 42 40 35 39 38 35 37 40 42 42 42 42 42 43 48 54 58 61 63 63 63 64 69 72 70 65 63 61 67 70 74 77 79 80 80 82 86 86 89
37 37 42 48 46 44 33 35 39 39 44 48 51 51 51 52 51 52 53 51 56 62 65 64 66 66 69 72 72 70 65 63 67 73 80 84 86 85 85 86 87 86 83 82
56 60 59 57 49 34 32 35 40 45 52 56 55 58 60 58 58 58 60 60 62 65 66 69 70 70 71 72 71 70 67 68 73 76 79 80 80 83 85 84 84 81 78 78
44 35 37 33 30 33 38 42 47 50 57 59 65 66 64 63 60 58 60 61 66 72 73 70 73 74 74 73 72 69 67 71 80 81 78 83 84 84 84 86 84 79 76 78
45 42 40 39 40 42 47 54 58 61 64 66 68 69 68 68 68 68 70 70 70 72 73 74 77 78 77 76 74 70 71 74 77 78 78 80 84 88 88 86 82 79 82 87
52 48 41 42 51 54 59 60 62 65 66 69 72 74 73 70 72 76 78 77 76 72 72 73 79 84 82 78 75 71 73 75 75 76 79 85 88 87 84 83 85 82 83 84
57 56 53 59 59 57 58 59 62 67 67 75 78 75 76 80 81 82 83 82 75 76 79 78 81 83 78 76 78 76 79 78 77 78 85 89 88 85 86 85 81 83 81 83
50 53 58 55 55 55 52 52 58 64 67 71 75 80 83 82 82 84 85 87 85 84 84 84 84 80 78 81 82 79 81 82 83 83 84 87 87 86 84 83 83 85 88 93
56 73 63 54 53 50 52 55 57 62 68 69 76 82 85 87 89 88 87 86 86 89 86 84 85 80 78 76 75 79 84 85 85 85 86 87 88 89 90 89 90 92 90 91
56 64 64 55 56 63 70 61 60 62 64 66 71 76 86 88 84 84 87 85 90 91 86 81 82 81 86 82 81 86 88 83 84 88 91 89 92 93 93 93 94 92 92 92
55 60 66 71 73 70 66 58 65 69 66 68 71 77 83 86 89 86 89 94 98 88 90 97 95 98 81 78 72 70 71 74 78 83 88 92 94 95 95 94 94 93 92 94
64 57 56 60 59 57 58 61 67 64 69 73 74 77 83 85 85 88 92 97 91 89 89 90 88 86 72 68 68 68 75 80 80 78 78 78 79 88 90 91 92 92 93 94
66 66 62 62 57 59 60 62 69 67 67 71 77 77 83 86 88 89 94 92 84 78 78 80 81 75 74 77 74 74 74 76 72 69 67 70 75 80 81 82 82 80 86 90

GFSNGP_925_rhum_126.txt.gz
RH
74 63 60 60 56 52 69 66 78 63 58 48 44 56 57 52 49 50 53 55 53 55 59 56 54 57 63 68 72 82 84 87 92 90 86 90 93 92 93 85 79 83 82 82
75 55 53 61 52 50 48 50 58 58 61 42 39 39 48 45 47 52 55 54 52 53 54 54 55 57 58 61 61 63 66 66 71 70 66 67 66 68 63 69 71 72 79 73
84 62 64 61 42 45 47 45 47 56 43 40 39 39 44 43 46 50 53 53 54 52 55 51 55 58 57 60 61 62 61 58 57 57 60 61 62 64 68 70 68 69 76 72
89 75 77 43 38 39 46 37 39 40 44 43 40 40 39 42 44 48 50 52 53 51 48 50 58 61 60 62 64 67 65 59 57 56 61 64 66 68 68 69 66 63 72 75
88 74 56 39 36 40 46 42 33 37 40 40 38 46 52 41 40 43 45 50 49 46 46 51 58 61 62 65 65 69 66 58 57 56 59 61 62 62 70 68 60 66 71 68
82 78 67 26 32 33 38 59 34 36 38 38 46 61 59 44 41 42 40 40 44 44 44 51 58 62 62 64 65 66 68 60 53 55 57 60 63 63 65 63 59 62 63 61
88 87 64 31 39 40 49 32 38 37 37 39 50 53 45 39 38 39 41 40 41 44 46 49 54 60 64 62 63 63 65 61 54 56 57 57 58 58 61 57 54 53 55 57
80 78 78 41 46 50 38 34 37 40 38 42 45 44 42 44 46 49 51 45 45 49 48 50 51 58 64 65 61 64 65 64 59 57 58 55 59 58 56 56 54 52 52 54
56 59 37 43 37 38 37 40 38 39 40 41 48 46 46 45 45 49 50 48 49 52 52 52 54 57 64 61 64 66 64 62 63 62 60 58 58 62 58 58 56 54 50 52
39 34 28 28 35 34 35 43 36 35 38 39 45 47 47 45 45 48 49 52 50 58 60 61 57 59 61 62 63 65 63 60 59 61 61 61 60 59 60 61 58 56 54 57
47 35 31 28 27 28 33 32 33 36 40 46 47 50 48 48 48 49 49 48 50 58 63 62 58 60 61 62 60 62 59 54 53 57 61 62 62 60 60 57 63 64 65 70
35 27 30 28 27 28 31 37 39 42 47 47 48 52 50 54 50 46 49 47 54 56 60 60 58 58 59 61 59 58 56 51 50 55 59 62 62 63 61 60 62 64 63 65
29 27 30 31 32 32 35 38 40 43 46 48 45 50 51 53 47 44 44 46 52 57 58 60 61 58 57 59 62 58 56 52 51 55 59 62 64 65 68 69 70 71 67 69
32 31 35 39 38 40 42 42 44 40 39 41 42 40 41 47 44 47 51 46 46 49 56 60 63 62 58 59 62 62 58 54 51 54 57 62 64 65 65 70 80 78 77 84
35 36 35 36 37 46 46 46 42 46 44 43 42 50 52 59 60 54 48 45 46 48 53 58 64 64 62 60 64 67 64 60 55 55 57 59 64 67 69 72 75 76 81 87
42 43 46 49 49 52 51 41 44 45 46 54 59 60 58 58 60 60 58 56 61 64 58 60 63 62 65 63 66 70 69 66 60 59 63 68 70 74 78 79 81 82 84 85
55 57 56 58 62 60 50 40 41 45 51 60 66 62 65 67 67 66 61 59 61 62 62 65 65 65 66 66 68 74 73 72 68 63 66 73 74 79 80 82 84 86 85 84
50 52 50 55 58 56 40 42 47 51 59 59 64 68 73 74 76 72 68 67 67 67 67 66 68 71 71 70 72 76 74 72 72 72 72 76 77 77 80 82 84 86 85 82
44 45 49 42 38 41 45 51 55 56 61 64 69 74 72 72 72 72 72 76 79 82 72 70 70 74 76 74 75 76 74 71 71 74 76 78 82 81 82 84 85 87 86 81
61 56 49 43 44 50 56 56 58 63 62 65 69 75 78 74 74 78 80 88 82 79 76 76 75 76 81 81 80 76 73 71 72 76 79 79 81 83 85 87 88 86 83 78
65 62 53 58 60 53 54 54 61 65 59 63 71 75 77 77 79 81 88 93 78 80 79 79 82 84 88 84 82 76 74 73 73 73 75 81 82 87 88 87 85 85 80 80
61 60 60 57 58 59 53 52 54 58 60 62 66 72 78 81 80 83 83 88 82 85 85 83 85 86 84 83 81 78 74 72 73 74 77 81 86 88 87 86 86 85 83 81
60 74 66 59 56 51 48 49 52 53 56 59 64 68 76 77 82 95 95 84 87 87 87 86 85 82 83 85 79 74 74 74 76 80 82 83 84 86 87 87 87 87 90 94
55 63 65 56 51 56 59 50 48 49 53 58 58 60 68 80 77 79 83 85 87 92 88 83 86 90 91 84 80 81 82 83 83 82 84 86 89 91 92 92 92 92 93 88
54 56 62 71 71 69 59 57 59 63 63 62 62 58 61 72 85 83 86 87 94 91 86 94 99 97 87 87 84 80 77 73 71 75 83 89 91 94 95 96 95 93 92 95
63 60 60 60 59 58 56 60 69 63 64 73 66 61 63 69 78 84 87 92 94 91 93 99 100 92 79 70 64 60 64 66 72 79 79 83 81 77 81 90 87 82 78 76
68 63 63 65 58 56 57 59 68 65 63 66 69 63 67 73 80 86 92 97 92 90 92 94 91 80 64 62 64 66 70 74 71 68 64 61 63 66 70 71 71 72 73 74

GFSNGP_925_rhum_129.txt.gz
RH
80 76 74 75 73 67 81 75 82 64 70 57 53 62 64 60 67 64 58 61 60 60 65 59 58 60 63 65 68 75 74 80 82 78 78 87 84 93 92 91 93 91 88 88
84 68 68 78 69 68 63 58 68 63 63 43 41 44 48 58 60 59 59 58 60 59 62 59 60 58 60 60 59 58 61 60 64 64 62 64 72 74 73 74 80 77 72 65
89 70 76 70 59 52 55 55 53 64 51 42 43 44 47 55 54 55 56 59 60 60 60 55 55 56 58 58 58 60 58 55 56 54 55 59 60 63 66 64 64 71 66 55
92 78 70 37 40 39 46 45 45 44 41 44 45 45 46 46 50 53 53 56 59 60 53 50 52 56 55 58 61 63 62 56 54 54 59 59 64 65 66 65 61 68 69 64
92 86 60 44 44 44 48 44 43 44 40 39 40 45 50 42 47 48 51 53 52 47 46 46 51 55 57 59 61 68 67 58 53 54 58 57 56 64 67 59 57 66 69 62
94 86 72 29 31 37 41 43 41 42 43 45 52 61 51 44 42 47 47 44 48 47 47 47 49 54 60 62 63 65 65 61 48 49 50 53 53 53 58 52 52 56 58 55
77 90 80 52 36 41 25 13 40 41 40 45 58 52 45 44 43 41 42 43 43 48 51 48 48 55 62 62 66 57 60 62 50 45 46 47 48 49 52 51 51 52 54 57
77 90 88 47 49 32 27 36 38 42 43 42 45 45 45 47 47 47 53 47 43 55 52 49 49 56 64 66 54 58 62 64 54 47 50 51 52 53 56 55 54 53 53 54
75 72 47 48 39 43 41 40 38 44 45 48 49 48 49 51 50 50 46 45 44 53 57 52 51 54 66 55 56 60 65 65 55 49 50 52 54 57 57 55 53 53 52 52
39 34 38 35 38 42 38 45 42 43 43 43 47 46 51 54 55 52 46 48 46 55 66 62 55 55 52 57 58 64 67 66 59 57 56 56 55 56 59 59 58 56 55 54
50 35 33 28 28 28 35 39 43 42 39 42 46 52 52 55 55 55 50 45 44 58 65 62 57 58 56 57 60 67 69 67 61 60 61 59 59 57 58 54 52 54 56 57
35 25 29 25 29 28 32 37 41 42 42 46 48 55 55 60 57 54 54 49 50 52 64 62 60 59 58 59 61 66 72 70 63 61 61 62 61 63 62 59 56 60 62 60
31 24 26 26 31 34 34 38 40 45 48 49 49 47 48 53 52 51 50 48 50 50 49 56 62 64 59 60 63 66 69 68 62 57 57 60 65 66 68 67 67 64 64 64
35 35 39 37 36 41 41 40 45 46 47 44 43 42 44 49 50 54 56 52 52 52 53 55 60 66 59 61 64 65 66 65 61 58 55 58 62 64 63 65 72 78 73 77
39 41 39 36 40 43 47 53 53 50 46 43 42 50 56 62 64 62 59 58 58 58 57 55 57 59 58 64 65 66 70 69 65 60 56 55 58 60 62 65 68 68 70 76
51 53 53 56 50 53 58 60 53 51 44 46 57 59 59 62 65 65 63 62 68 71 65 65 66 61 62 67 70 71 71 69 68 66 62 62 61 65 68 70 70 72 75 76
64 62 62 61 62 60 59 56 50 48 46 54 57 60 66 69 72 70 66 65 68 68 67 68 65 65 68 70 71 73 75 74 72 70 65 63 65 69 73 74 77 77 76 76
50 50 52 53 54 61 65 59 51 47 53 51 59 65 71 75 75 73 71 73 74 73 69 67 68 71 71 73 75 76 77 79 79 78 71 72 72 70 71 76 79 79 77 80
59 57 53 59 58 56 59 55 50 46 52 59 66 71 68 70 72 73 75 80 83 87 73 76 76 75 74 76 80 79 80 81 81 83 77 75 80 76 76 77 78 80 83 86
58 62 64 60 48 46 50 48 49 59 58 62 65 71 73 68 69 75 78 86 79 80 82 79 77 77 79 81 86 84 83 82 81 83 80 79 80 78 78 80 83 85 86 88
66 70 72 59 53 49 48 53 60 65 58 62 69 69 69 68 72 78 88 92 74 81 83 83 82 83 85 88 90 85 83 81 81 82 80 79 79 82 84 85 86 87 88 87
62 66 62 56 54 54 54 55 56 54 57 61 61 65 71 71 72 75 75 82 77 83 80 81 82 84 85 88 88 84 81 79 77 75 76 77 83 86 81 86 89 87 87 88
59 73 68 63 57 54 50 54 54 55 57 56 58 60 64 64 70 90 90 73 84 83 84 83 84 83 85 86 84 80 78 76 75 73 79 90 85 85 88 88 89 88 88 88
52 58 67 63 57 55 60 54 53 54 52 51 52 52 56 64 63 63 72 83 82 86 88 85 84 90 90 87 83 80 79 78 86 93 86 84 86 88 91 92 92 91 93 96
54 53 59 69 70 68 61 52 54 59 56 54 52 50 53 58 71 65 78 83 88 91 87 86 93 94 85 86 83 84 90 90 86 85 86 88 90 91 93 94 96 97 96 94
59 60 58 56 55 56 58 60 68 59 61 65 54 51 52 55 62 72 80 86 90 91 88 96 97 93 88 90 88 80 74 70 69 70 75 78 83 87 86 82 80 82 78 74
69 67 70 71 65 60 58 61 70 64 62 62 62 51 56 57 63 73 81 86 92 92 93 99 99 95 85 72 63 59 63 66 68 69 67 65 61 57 57 59 62 65 67 67

GFSNGP_925_rhum_135.txt.gz
RH
87 82 79 79 77 84 94 79 82 49 64 47 50 53 50 53 54 56 64 75 75 70 66 61 59 57 56 58 58 61 68 64 63 61 59 61 69 71 82 90 92 93 95 97
93 81 84 90 78 76 72 77 82 75 72 46 41 44 47 50 56 56 50 64 72 72 70 64 58 56 52 53 54 55 62 60 56 58 55 55 64 67 73 72 67 62 61 74
90 76 77 62 57 66 72 75 61 73 54 41 46 43 47 47 52 51 53 56 63 69 66 60 53 51 54 50 53 57 56 54 52 52 54 55 59 64 63 69 66 56 53 60
95 78 65 32 39 44 60 51 58 59 51 45 46 46 51 50 50 52 53 53 58 66 61 53 48 50 50 51 54 55 54 55 56 52 51 54 59 64 66 64 67 63 56 56
96 96 67 36 44 53 54 43 48 56 51 44 44 48 48 47 52 50 53 53 53 49 49 49 49 48 51 54 56 56 55 53 52 51 48 51 56 60 63 62 63 68 65 54
87 99 72 24 30 42 31 30 29 46 42 45 50 50 49 41 46 48 50 49 50 47 48 51 49 52 55 56 58 58 52 49 50 52 48 48 49 53 59 61 54 64 62 60
73 80 76 58 41 40 24 15 21 46 42 48 53 46 39 48 50 47 47 44 42 46 51 47 50 54 60 61 62 49 48 48 54 56 52 45 48 51 52 57 53 58 59 57
71 78 87 54 52 46 30 25 31 38 42 46 55 50 52 51 50 51 53 47 41 48 46 40 49 59 61 66 48 53 53 52 52 54 55 49 47 50 54 56 58 54 55 54
75 70 48 52 47 44 43 40 34 35 36 43 48 48 47 49 51 52 49 48 45 47 47 42 47 60 66 54 57 56 59 56 54 56 59 54 48 49 56 55 57 55 55 53
60 45 50 44 45 47 46 47 44 47 44 46 47 46 51 54 54 52 49 51 48 52 58 56 49 54 55 56 61 63 62 60 60 62 62 61 52 48 51 53 58 57 56 56
60 38 33 32 35 36 41 42 48 44 46 46 52 51 52 54 53 55 55 52 49 55 59 58 54 55 55 60 69 70 66 64 66 66 67 65 59 50 49 45 43 46 46 48
49 34 31 30 28 29 34 36 36 39 42 42 51 48 52 55 56 58 57 48 52 54 55 50 48 47 44 52 68 73 74 71 72 73 71 72 69 61 55 50 48 49 50 53
44 38 37 34 33 34 36 35 37 40 36 39 44 54 55 57 52 45 48 53 55 54 54 54 54 56 50 57 68 77 79 76 75 80 79 79 78 74 73 60 56 57 57 58
44 47 48 42 43 38 42 44 46 48 47 49 49 50 51 54 46 50 55 52 55 59 61 61 61 59 55 58 60 74 80 80 80 80 81 81 81 79 75 71 71 73 65 67
50 47 47 45 47 48 46 48 53 51 48 50 51 54 50 51 53 56 53 58 61 65 64 65 66 63 62 65 70 72 77 83 85 84 82 81 81 81 79 77 72 66 66 73
57 58 59 63 60 59 58 57 60 58 56 55 56 54 48 45 53 57 59 61 70 72 66 70 70 66 69 71 74 78 79 83 85 86 86 87 85 85 85 81 78 75 71 62
71 63 61 69 66 64 66 61 60 58 58 61 60 53 49 58 65 66 61 61 66 69 68 70 70 74 76 77 79 79 83 85 90 93 89 87 86 86 84 83 82 82 73 61
64 60 59 61 62 60 57 58 64 63 65 58 55 53 63 70 65 62 62 64 67 65 62 69 75 77 75 76 79 80 84 87 91 93 90 88 86 84 83 82 82 78 71 67
58 60 58 58 61 64 65 64 67 62 59 55 56 66 63 62 62 63 65 69 72 76 62 71 78 79 79 78 82 84 89 92 94 93 92 89 90 88 86 85 83 76 70 74
60 57 60 71 67 72 75 69 64 57 54 57 61 65 66 63 62 64 69 74 64 67 68 73 78 78 82 84 88 91 94 94 93 92 92 91 90 91 89 84 80 87 97 92
58 56 63 74 70 56 56 56 58 62 63 60 61 62 61 58 61 61 72 74 50 58 70 75 77 79 81 85 91 93 91 91 91 91 92 94 93 92 91 99 100 98 94 87
61 61 66 67 69 62 51 56 58 58 60 62 61 60 60 60 60 65 59 57 55 70 70 69 76 81 84 89 92 92 90 90 90 88 89 92 91 94 99 99 98 96 95 93
58 64 64 66 66 67 58 54 52 55 56 56 58 58 61 58 52 73 75 51 60 63 67 67 76 82 85 86 87 86 85 86 86 87 86 86 86 91 90 94 94 91 91 91
57 59 64 61 62 67 71 59 55 53 52 47 46 45 52 60 52 51 51 53 58 74 80 79 75 82 86 89 86 84 83 82 81 81 83 86 93 94 90 90 90 90 90 90
66 68 67 71 77 71 69 64 65 59 58 57 57 51 51 52 49 48 52 56 68 71 78 78 76 86 92 90 88 84 82 81 80 87 92 89 86 87 87 90 92 93 94 94
69 69 67 70 73 72 72 72 81 70 70 70 64 56 51 54 52 51 54 57 63 68 75 81 78 90 92 86 87 85 85 88 91 87 84 85 86 86 86 86 86 85 87 90
78 79 84 85 75 73 74 77 84 81 75 76 74 66 61 58 55 53 57 54 58 63 76 92 88 91 94 86 86 88 91 90 83 70 66 68 72 71 69 66 65 65 63 61